Location: Larkspur
(54.4391°N, 113.7691°W)
Time: 19:09:17
(UTC+00:00)

LilacSat-2 - Pass Details

Date: 15 December 2023
Orbit: 485 x 504 km, 97.5° (Epoch: 21 February)

Event Time Altitude Azimuth Distance (km) Brightness Sun altitude
Rises 00:25:34 0° 155° (SSE) 2,591 ? -10.0°
Maximum altitude 00:31:18 63° 72° (ENE) 574 ? -10.7°
Drops below altitude 10° 00:35:01 10° 351° (N) 1,742 ? -11.2°
Sets 00:37:08 0° 348° (NNW) 2,636 ? -11.5°
